Voltar ao catálogo

STARLINK-37655

AtivoComunicaçõesSSO
NORAD 69142·PAYLOAD·🇺🇸 United States

Lançado May 20, 2026 de Vandenberg Space Force Base

Loading…

Próximas Passagens (próximas 24 horas)

TLE

AtualizadoSource: CelesTrak SupGP

Época: Sep 15, 2026, 03:06 UTC

1 69142C 26110U   26258.12965278 -.00050665  00000+0 -15727-2 0  2580
2 69142  97.2849  93.3083 0001748  91.5213 352.5045 15.33465043    19

Acompanhe STARLINK-37655 em tempo real com AllMySat

Download on the App Store